Date String (YYYY-MM-DD hh:mm:ss) UTC,Instrument flags,absolute air pressure of the measurement (hPa),sample flow rate (lpm),inlet stack bypass flow (lpm),air temperature of the measurement (°C),ambient temperature measured by the external sensor (°C),aerosol sample conditioner tube jacket temperature (°C),OPC LED temperature (°C),internal box temperature (°C),relative humidity of the measurement (%),span deviation,mass concentration of particles derived from Lorenz-Mie calculation of OPC scattering (μg/m³),mass concentration of particles derived from Lorenz-Mie calculation of OPC scattering (μg/m³),mass concentration of particles derived from Lorenz-Mie calculation of OPC scattering (μg/m³)
DateTimeUTC,F1_M11,P_M11,Q1_M11,Q2_M11,T1_M11,T2_M11,T3_M11,T4_M11,T5_M11,U1_M11,ZSPAN_M11,X0_M11,X2_M11,X1_M11
2024-06-17 13:00:00,SystemResetWarning,0822.4,4.99,000.00,031.6,030.8,000.0,040.0,033.2,029.8,0000.0,0014.33,0005.91,0004.81
2024-06-17 13:01:00,SystemResetWarning,0822.4,5.00,000.00,031.6,030.8,000.0,040.0,033.2,029.8,0000.0,0014.14,0005.89,0004.82
2024-06-17 13:02:00,SystemResetWarning,0822.4,5.00,000.00,031.6,030.8,000.0,040.0,033.2,029.8,0000.0,0014.91,0005.94,0004.83
2024-06-17 13:03:00,SystemResetWarning,0822.4,4.99,000.00,031.6,030.8,000.0,040.0,033.2,029.9,0000.0,0015.49,0005.99,0004.82
2024-06-17 13:04:00,SystemResetWarning,0822.4,5.00,000.00,031.6,030.8,000.0,040.0,033.2,029.8,0000.0,0015.42,0005.98,0004.82
2024-06-17 13:05:00,SystemResetWarning,0822.4,5.01,000.00,031.6,030.8,000.0,040.0,033.2,029.8,0000.0,0014.45,0006.00,0004.82
2024-06-17 13:06:00,SystemResetWarning,0822.4,5.00,000.00,031.6,030.8,000.0,040.0,033.2,029.8,0000.0,0014.59,0005.96,0004.82
2024-06-17 13:07:00,SystemResetWarning,0822.5,5.00,000.00,031.6,030.8,000.0,040.0,033.2,029.8,0000.0,0015.06,0005.96,0004.82
2024-06-17 13:08:00,SystemResetWarning,0822.4,5.00,000.00,031.6,030.8,000.0,040.0,033.2,029.8,0000.0,0015.88,0005.99,0004.82
2024-06-17 13:09:00,SystemResetWarning,0823.0,5.01,000.00,031.6,030.8,000.0,040.0,033.2,029.8,0000.0,0016.79,0006.05,0004.84
2024-06-17 13:10:00,SystemResetWarning,0823.1,5.00,000.00,031.6,030.8,000.0,040.0,033.2,029.8,0000.0,0017.69,0006.07,0004.85
2024-06-17 13:11:00,SystemResetWarning,0823.0,5.00,000.00,031.6,030.8,000.0,040.0,033.3,029.8,0000.5,0018.42,0006.10,0004.87
2024-06-17 13:12:00,SystemResetWarning,0822.7,5.00,000.00,031.6,030.8,000.0,040.0,033.3,029.8,0000.3,0019.45,0006.13,0004.88
2024-06-17 13:13:00,SystemResetWarning,0823.0,5.00,000.00,031.6,030.8,000.0,040.1,033.3,029.8,0000.2,0019.88,0006.14,0004.87
2024-06-17 13:14:00,SystemResetWarning,0823.1,5.00,000.00,031.6,030.8,000.0,040.1,033.2,029.9,0000.2,0020.39,0006.16,0004.87
2024-06-17 13:15:00,SystemResetWarning,0823.0,5.00,000.00,031.6,030.8,000.0,040.1,033.2,030.0,0000.0,0020.52,0006.17,0004.88
2024-06-17 13:16:00,SystemResetWarning,0823.0,4.99,000.00,031.6,030.8,000.0,040.1,033.3,030.1,0001.0,0020.62,0006.19,0004.90
2024-06-17 13:17:00,SystemResetWarning,0823.1,5.00,000.00,031.6,030.9,000.0,040.1,033.2,029.9,0000.5,0020.90,0006.28,0004.91
2024-06-17 13:18:00,SystemResetWarning,0823.1,5.00,000.00,031.6,030.9,000.0,040.1,033.3,029.8,0000.2,0021.00,0006.32,0004.92
2024-06-17 13:19:00,SystemResetWarning,0823.0,5.00,000.00,031.6,030.9,000.0,040.1,033.3,029.8,0000.0,0020.31,0006.31,0004.91
2024-06-17 13:20:00,SystemResetWarning,0822.7,5.00,000.00,031.6,030.9,000.0,040.1,033.2,029.8,0000.0,0019.39,0006.22,0004.91
2024-06-17 13:21:00,SystemResetWarning,0822.6,5.00,000.00,031.6,030.9,000.0,040.1,033.3,029.8,0000.0,0018.54,0006.22,0004.92
2024-06-17 13:22:00,SystemResetWarning,0822.6,5.00,000.00,031.6,030.9,000.0,040.1,033.3,029.8,0000.0,0019.18,0006.23,0004.92
2024-06-17 13:23:00,SystemResetWarning,0822.6,5.00,000.00,031.6,030.9,000.0,040.1,033.3,029.8,0000.0,0018.33,0006.24,0004.92
2024-06-17 13:24:00,SystemResetWarning,0822.8,5.00,000.00,031.6,030.9,000.0,040.1,033.3,029.9,0000.0,0018.23,0006.22,0004.92
2024-06-17 13:25:00,SystemResetWarning,0822.6,5.00,000.00,031.6,030.9,000.0,040.1,033.3,030.0,0000.0,0018.13,0006.18,0004.93
2024-06-17 13:26:00,SystemResetWarning,0822.7,5.00,000.00,031.6,030.9,000.0,040.1,033.3,030.0,0000.0,0017.94,0006.14,0004.92
2024-06-17 13:27:00,SystemResetWarning,0822.6,4.99,000.00,031.6,030.9,000.0,040.1,033.3,029.9,0000.0,0017.42,0006.10,0004.91
2024-06-17 13:28:00,SystemResetWarning,0822.7,5.00,000.00,031.6,030.9,000.0,040.1,033.3,029.7,0000.0,0017.11,0006.01,0004.91
2024-06-17 13:29:00,SystemResetWarning,0822.5,5.01,000.00,031.7,030.9,000.0,040.1,033.3,029.7,0000.0,0016.94,0006.00,0004.92
2024-06-17 13:30:00,SystemResetWarning,0822.6,5.01,000.00,031.7,030.9,000.0,040.1,033.3,029.8,0000.0,0017.03,0005.97,0004.93
2024-06-17 13:31:00,SystemResetWarning,0822.6,5.00,000.00,031.7,030.9,000.0,040.1,033.3,029.8,0000.0,0016.70,0005.96,0004.93
2024-06-17 13:32:00,SystemResetWarning,0822.6,4.99,000.00,031.7,030.9,000.0,040.1,033.3,029.8,0000.0,0017.02,0005.92,0004.92
2024-06-17 13:33:00,SystemResetWarning,0822.7,4.99,000.00,031.7,030.9,000.0,040.1,033.3,029.7,0000.0,0016.63,0005.88,0004.93
2024-06-17 13:34:00,SystemResetWarning,0822.6,5.01,000.00,031.7,030.9,000.0,040.1,033.3,029.6,0000.0,0016.13,0005.86,0004.95
2024-06-17 13:35:00,SystemResetWarning,0822.6,5.01,000.00,031.7,030.9,000.0,040.1,033.3,029.6,0000.0,0015.47,0005.83,0004.96
2024-06-17 13:36:00,SystemResetWarning,0822.8,5.00,000.00,031.6,030.5,000.0,040.2,033.0,029.7,0000.0,0014.73,0005.84,0004.98
2024-06-17 13:37:00,SystemResetWarning,0822.6,4.99,000.00,031.3,027.9,000.0,040.2,031.8,030.3,0000.0,0015.26,0005.91,0005.01
2024-06-17 13:38:00,SystemResetWarning,0822.4,5.02,000.00,030.7,026.0,000.0,040.1,030.9,031.3,0000.0,0015.76,0005.96,0005.04
2024-06-17 13:39:00,SystemResetWarning,0822.4,5.00,000.00,030.3,025.8,000.0,039.9,030.6,032.3,0000.0,0016.33,0006.03,0005.06
2024-06-17 13:40:00,SystemResetWarning,0822.5,5.00,000.00,030.2,026.4,000.0,039.7,030.8,032.8,0000.0,0016.68,0006.05,0005.06
2024-06-17 13:41:00,SystemResetWarning,0822.4,4.99,000.00,030.1,026.9,000.0,039.5,031.1,032.6,0000.0,0016.68,0006.07,0005.07
2024-06-17 13:42:00,SystemResetWarning,0822.5,5.00,000.00,030.1,027.4,000.0,039.4,031.3,032.6,0000.0,0016.66,0006.15,0005.09
2024-06-17 13:43:00,SystemResetWarning,0822.5,5.00,000.00,030.1,027.9,000.0,039.3,031.5,032.6,0000.0,0017.42,0006.21,0005.11
2024-06-17 13:44:00,SystemResetWarning,0822.4,5.00,000.00,030.1,028.3,000.0,039.2,031.7,032.6,0000.0,0017.85,0006.23,0005.12
2024-06-17 13:45:00,SystemResetWarning,0822.5,5.00,000.00,030.1,028.5,000.0,039.1,031.8,032.6,0000.0,0017.93,0006.23,0005.11
2024-06-17 13:46:00,SystemResetWarning,0822.4,5.01,000.00,030.2,028.8,000.0,039.1,031.8,032.4,0000.0,0018.06,0006.28,0005.11
2024-06-17 13:47:00,SystemResetWarning,0822.5,5.00,000.00,030.2,029.0,000.0,039.0,031.9,032.4,0000.0,0017.91,0006.32,0005.13
2024-06-17 13:48:00,SystemResetWarning,0822.5,4.99,000.00,030.2,029.2,000.0,039.0,032.0,032.3,0000.0,0016.95,0006.28,0005.14
2024-06-17 13:49:00,SystemResetWarning,0822.4,5.00,000.00,030.3,029.3,000.0,039.0,032.0,032.4,0000.0,0016.78,0006.27,0005.14
2024-06-17 13:50:00,SystemResetWarning,0822.4,5.00,000.00,030.3,029.4,000.0,039.0,032.0,032.3,0000.0,0015.90,0006.24,0005.15
2024-06-17 13:51:00,SystemResetWarning,0822.4,5.01,000.00,030.4,029.5,000.0,038.9,032.1,032.2,0000.0,0015.09,0006.23,0005.16
2024-06-17 13:52:00,SystemResetWarning,0822.4,5.00,000.00,030.4,029.6,000.0,038.9,032.1,032.2,0000.0,0015.32,0006.25,0005.17
2024-06-17 13:53:00,SystemResetWarning,0822.4,5.00,000.00,030.4,029.7,000.0,038.9,032.2,032.1,0000.0,0015.37,0006.24,0005.17
2024-06-17 13:54:00,SystemResetWarning,0822.4,5.00,000.00,030.5,029.8,000.0,038.9,032.2,031.9,0000.0,0014.94,0006.21,0005.17
2024-06-17 13:55:00,SystemResetWarning,0822.4,4.99,000.00,030.5,029.8,000.0,039.0,032.3,031.7,0000.0,0014.11,0006.27,0005.21
2024-06-17 13:56:00,SystemResetWarning,0822.4,4.99,000.00,030.5,029.9,000.0,039.0,032.3,031.7,0000.0,0014.07,0006.35,0005.26
2024-06-17 13:57:00,SystemResetWarning,0822.4,5.00,000.00,030.6,029.9,000.0,039.0,032.3,031.6,0000.0,0014.50,0006.36,0005.28
2024-06-17 13:58:00,SystemResetWarning,0822.4,5.00,000.00,030.6,030.0,000.0,039.0,032.4,031.5,0000.0,0015.04,0006.39,0005.31
2024-06-17 13:59:00,SystemResetWarning,0822.4,5.00,000.00,030.6,030.0,000.0,039.0,032.4,031.6,0000.0,0015.58,0006.44,0005.34
